COOK73 UNOO-ZBLA

Flight info

Callsign COOK73
Flight time N/A
Altitude 37000
Route KOVEN6D KOVEN B234 SZ B926 KESED B151 RO A817 NERKA B478 KTN A91 AGINO A810 TELOK A345 KAGAK KAG01A
Aircraft C25C/M-SDE2E3FGHRWXY/LB1

Departure

Time N/A
Airport Omsk Central Airport (UNOO)

Arrival

Time 2026-04-27 21:06
Airport Hulunbuir Hailar Airport (ZBLA)
Time Latitude Longitude Altitude Speed Heading
2026-04-27 19:48 52.74699 110.63688 37278 ft 392 kts 108°
2026-04-27 19:49 52.72606 110.72012 37281 ft 393 kts 108°
2026-04-27 19:49 52.70517 110.80281 37281 ft 394 kts 108°
2026-04-27 19:50 52.68407 110.88611 37282 ft 394 kts 108°
2026-04-27 19:50 52.66286 110.96941 37288 ft 394 kts 108°
2026-04-27 19:51 52.64164 111.05256 37286 ft 394 kts 108°
2026-04-27 19:51 52.62035 111.13559 37277 ft 394 kts 108°
2026-04-27 19:52 52.59899 111.21857 37270 ft 394 kts 108°
2026-04-27 19:52 52.58122 111.28740 37267 ft 393 kts 108°
2026-04-27 19:53 52.54908 111.41142 37264 ft 393 kts 108°
2026-04-27 19:53 52.52759 111.49391 37260 ft 393 kts 108°
2026-04-27 19:54 52.50597 111.57619 37261 ft 392 kts 109°
2026-04-27 19:54 52.48507 111.65356 37256 ft 392 kts 109°
2026-04-27 19:55 52.46317 111.73535 37253 ft 391 kts 109°
2026-04-27 19:55 52.44126 111.81699 37244 ft 391 kts 109°
2026-04-27 19:56 52.41940 111.89804 37243 ft 391 kts 109°
2026-04-27 19:56 52.39737 111.97943 37244 ft 390 kts 109°
2026-04-27 19:57 52.37535 112.06056 37237 ft 390 kts 109°
2026-04-27 19:57 52.35331 112.14150 37231 ft 389 kts 109°
2026-04-27 19:58 52.33119 112.22233 37229 ft 389 kts 109°
2026-04-27 19:58 52.30907 112.30303 37225 ft 389 kts 109°
2026-04-27 19:59 52.28687 112.38357 37222 ft 388 kts 109°
2026-04-27 19:59 52.26464 112.46408 37219 ft 388 kts 109°
2026-04-27 20:00 52.24234 112.54436 37218 ft 389 kts 109°
2026-04-27 20:00 52.21973 112.62443 37213 ft 388 kts 109°
2026-04-27 20:01 52.19722 112.70435 37216 ft 388 kts 109°
2026-04-27 20:01 52.17476 112.78364 37212 ft 387 kts 109°
2026-04-27 20:02 52.15213 112.86330 37206 ft 387 kts 109°
2026-04-27 20:02 52.12945 112.94289 37204 ft 388 kts 109°
2026-04-27 20:03 52.10669 113.02246 37194 ft 388 kts 109°
2026-04-27 20:03 52.08392 113.10177 37196 ft 387 kts 109°
2026-04-27 20:04 52.06111 113.18100 37195 ft 387 kts 109°
2026-04-27 20:04 52.03774 113.25988 37191 ft 390 kts 113°
2026-04-27 20:05 52.00513 113.33142 37192 ft 400 kts 127°
2026-04-27 20:05 51.96299 113.39163 37193 ft 405 kts 134°
2026-04-27 20:06 51.91981 113.45042 37197 ft 405 kts 134°
2026-04-27 20:06 51.87654 113.50906 37204 ft 406 kts 134°
2026-04-27 20:07 51.83320 113.56767 37215 ft 406 kts 134°
2026-04-27 20:07 51.78981 113.62619 37224 ft 406 kts 134°
2026-04-27 20:08 51.74634 113.68468 37234 ft 407 kts 134°
2026-04-27 20:08 51.70310 113.74271 37237 ft 407 kts 134°
2026-04-27 20:09 51.65950 113.80103 37241 ft 407 kts 134°
2026-04-27 20:09 51.61592 113.85923 37240 ft 407 kts 134°
2026-04-27 20:10 51.57228 113.91716 37248 ft 407 kts 134°
2026-04-27 20:10 51.52856 113.97502 37250 ft 407 kts 134°
2026-04-27 20:11 51.48481 114.03282 37252 ft 407 kts 134°
2026-04-27 20:11 51.44102 114.09048 37255 ft 408 kts 134°
2026-04-27 20:12 51.39716 114.14810 37255 ft 408 kts 134°
2026-04-27 20:12 51.35324 114.20563 37252 ft 408 kts 134°
2026-04-27 20:13 51.30926 114.26310 37258 ft 408 kts 134°
2026-04-27 20:13 51.26548 114.32017 37254 ft 409 kts 134°
2026-04-27 20:14 51.22139 114.37751 37255 ft 409 kts 135°
2026-04-27 20:14 51.17723 114.43477 37248 ft 409 kts 135°
2026-04-27 20:15 51.13306 114.49194 37249 ft 409 kts 134°
2026-04-27 20:15 51.09449 114.55645 37250 ft 398 kts 120°
2026-04-27 20:16 51.06618 114.63098 37251 ft 393 kts 113°
2026-04-27 20:16 51.03912 114.70653 37255 ft 393 kts 113°
2026-04-27 20:17 51.01215 114.78217 37253 ft 393 kts 113°
2026-04-27 20:17 50.98966 114.84490 37254 ft 393 kts 113°
2026-04-27 20:18 50.95814 114.93256 37254 ft 393 kts 113°
2026-04-27 20:18 50.93099 115.00792 37256 ft 394 kts 113°
2026-04-27 20:19 50.90372 115.08331 37256 ft 394 kts 113°
2026-04-27 20:19 50.87642 115.15857 37259 ft 394 kts 113°
2026-04-27 20:20 50.84907 115.23379 37264 ft 394 kts 113°
2026-04-27 20:20 50.82167 115.30892 37265 ft 394 kts 113°
2026-04-27 20:21 50.79417 115.38411 37270 ft 395 kts 114°
2026-04-27 20:21 50.76660 115.45916 37271 ft 395 kts 114°
2026-04-27 20:22 50.73901 115.53417 37274 ft 395 kts 114°
2026-04-27 20:22 50.71153 115.60862 37281 ft 395 kts 114°
2026-04-27 20:23 50.68376 115.68366 37283 ft 396 kts 114°
2026-04-27 20:23 50.65598 115.75847 37285 ft 396 kts 114°
2026-04-27 20:24 50.62810 115.83333 37285 ft 396 kts 114°
2026-04-27 20:24 50.60016 115.90816 37286 ft 396 kts 114°
2026-04-27 20:25 50.57181 115.98269 37283 ft 398 kts 116°
2026-04-27 20:25 50.54236 116.05632 37283 ft 398 kts 115°
2026-04-27 20:26 50.51297 116.13004 37283 ft 398 kts 116°
2026-04-27 20:26 50.48339 116.20374 37282 ft 399 kts 116°
2026-04-27 20:27 50.45381 116.27742 37282 ft 399 kts 116°
2026-04-27 20:27 50.42431 116.35056 37284 ft 399 kts 116°
2026-04-27 20:28 50.39397 116.42380 37268 ft 403 kts 121°
2026-04-27 20:28 50.36159 116.47814 37280 ft 413 kts 133°
2026-04-27 20:29 50.30921 116.54371 37284 ft 415 kts 135°
2026-04-27 20:29 50.26408 116.60008 37278 ft 416 kts 136°
2026-04-27 20:30 50.21874 116.65632 37278 ft 416 kts 136°
2026-04-27 20:30 50.17340 116.71252 37283 ft 416 kts 136°
2026-04-27 20:31 50.12795 116.76865 37278 ft 417 kts 136°
2026-04-27 20:31 50.08245 116.82468 37283 ft 417 kts 136°
2026-04-27 20:32 50.03719 116.88028 37283 ft 417 kts 136°
2026-04-27 20:32 49.99156 116.93616 37285 ft 418 kts 136°
2026-04-27 20:33 49.94585 116.99204 37284 ft 418 kts 136°
2026-04-27 20:33 49.90018 117.04773 37280 ft 418 kts 136°
2026-04-27 20:34 49.85434 117.10348 37281 ft 418 kts 136°
2026-04-27 20:34 49.80847 117.15911 37279 ft 419 kts 136°
2026-04-27 20:35 49.76278 117.21439 37283 ft 419 kts 136°
2026-04-27 20:35 49.71683 117.26988 37274 ft 419 kts 136°
2026-04-27 20:36 49.67082 117.32530 37281 ft 419 kts 137°
2026-04-27 20:36 49.62536 117.38153 37269 ft 416 kts 131°
2026-04-27 20:37 49.58602 117.44581 36789 ft 406 kts 125°
2026-04-27 20:37 49.56902 117.47987 36263 ft 397 kts 120°
2026-04-27 20:37 49.55261 117.51387 35741 ft 393 kts 120°
2026-04-27 20:38 49.53634 117.54730 35224 ft 388 kts 119°
2026-04-27 20:38 49.52035 117.58038 34718 ft 383 kts 119°
2026-04-27 20:38 49.50456 117.61309 34195 ft 378 kts 118°
2026-04-27 20:38 49.48899 117.64525 33669 ft 372 kts 118°
2026-04-27 20:39 49.47362 117.67691 33180 ft 367 kts 118°
2026-04-27 20:39 49.45843 117.70816 32698 ft 363 kts 118°
2026-04-27 20:39 49.44361 117.73870 32233 ft 360 kts 118°
2026-04-27 20:39 49.42869 117.76935 31756 ft 357 kts 118°
2026-04-27 20:40 49.41384 117.79984 31289 ft 356 kts 118°
2026-04-27 20:40 49.39903 117.83017 30824 ft 354 kts 118°
2026-04-27 20:40 49.38428 117.86040 30356 ft 353 kts 118°
2026-04-27 20:40 49.36955 117.89052 29859 ft 352 kts 118°
2026-04-27 20:41 49.35487 117.92047 29393 ft 350 kts 118°
2026-04-27 20:41 49.34032 117.95020 28933 ft 348 kts 118°
2026-04-27 20:41 49.33067 117.96984 28630 ft 347 kts 118°
2026-04-27 20:41 49.31619 117.99936 28170 ft 346 kts 119°
2026-04-27 20:42 49.30171 118.02881 27742 ft 345 kts 119°
2026-04-27 20:42 49.28725 118.05817 27288 ft 345 kts 119°
2026-04-27 20:42 49.27378 118.08828 26836 ft 337 kts 109°
2026-04-27 20:42 49.26663 118.12171 26394 ft 326 kts 94°
2026-04-27 20:43 49.26500 118.15579 25972 ft 320 kts 86°
2026-04-27 20:43 49.26396 118.18987 25548 ft 321 kts 86°
2026-04-27 20:43 49.26298 118.22397 25125 ft 321 kts 86°
2026-04-27 20:43 49.26194 118.25826 24703 ft 322 kts 86°
2026-04-27 20:44 49.26086 118.29262 24277 ft 323 kts 87°
2026-04-27 20:44 49.25980 118.32708 23849 ft 325 kts 87°
2026-04-27 20:44 49.25870 118.36169 23381 ft 326 kts 87°
2026-04-27 20:44 49.25760 118.39631 22945 ft 326 kts 88°
2026-04-27 20:45 49.25650 118.43093 22521 ft 326 kts 88°
2026-04-27 20:45 49.25537 118.46557 22088 ft 326 kts 88°
2026-04-27 20:45 49.25425 118.50031 21661 ft 327 kts 88°
2026-04-27 20:45 49.25309 118.53519 21229 ft 328 kts 88°
2026-04-27 20:46 49.25194 118.57014 20797 ft 329 kts 88°
2026-04-27 20:46 49.25077 118.60518 20361 ft 330 kts 88°
2026-04-27 20:46 49.24958 118.63991 19931 ft 332 kts 89°
2026-04-27 20:46 49.24838 118.67522 19492 ft 333 kts 89°
2026-04-27 20:47 49.24715 118.71066 19054 ft 334 kts 89°
2026-04-27 20:47 49.24592 118.74616 18614 ft 335 kts 89°
2026-04-27 20:47 49.24468 118.78176 18140 ft 335 kts 89°
2026-04-27 20:47 49.24340 118.81727 17693 ft 334 kts 89°
2026-04-27 20:48 49.24217 118.85264 17253 ft 332 kts 89°
2026-04-27 20:48 49.24087 118.88789 16816 ft 331 kts 90°
2026-04-27 20:48 49.23963 118.92304 16378 ft 330 kts 90°
2026-04-27 20:48 49.23832 118.95810 15945 ft 330 kts 90°
2026-04-27 20:49 49.23705 118.99309 15509 ft 329 kts 90°
2026-04-27 20:49 49.23572 119.02798 15076 ft 329 kts 90°
2026-04-27 20:49 49.23445 119.06288 14643 ft 328 kts 90°
2026-04-27 20:49 49.23310 119.09780 14210 ft 328 kts 90°
2026-04-27 20:50 49.23179 119.13269 13749 ft 328 kts 90°
2026-04-27 20:50 49.23043 119.16750 13298 ft 327 kts 90°
2026-04-27 20:50 49.22911 119.20220 12876 ft 326 kts 90°
2026-04-27 20:50 49.22774 119.23682 12446 ft 326 kts 90°
2026-04-27 20:51 49.22639 119.27142 12017 ft 326 kts 91°
2026-04-27 20:51 49.22501 119.30619 11436 ft 330 kts 90°
2026-04-27 20:51 49.22361 119.34122 10968 ft 330 kts 91°
2026-04-27 20:51 49.22220 119.37629 10531 ft 330 kts 91°
2026-04-27 20:52 49.22076 119.41129 10091 ft 330 kts 91°
2026-04-27 20:52 49.21936 119.44622 9634 ft 327 kts 91°
2026-04-27 20:52 49.21794 119.47993 9210 ft 309 kts 91°
2026-04-27 20:52 49.21663 119.51207 8814 ft 296 kts 91°
2026-04-27 20:53 49.21532 119.54267 8434 ft 287 kts 91°
2026-04-27 20:53 49.21411 119.57283 8058 ft 281 kts 91°
2026-04-27 20:53 49.21283 119.60241 7692 ft 277 kts 91°
2026-04-27 20:53 49.21159 119.63161 7328 ft 274 kts 91°
2026-04-27 20:54 49.20913 119.68904 6614 ft 269 kts 91°
2026-04-27 20:54 49.20793 119.71746 6241 ft 266 kts 91°
2026-04-27 20:54 49.20667 119.74561 5895 ft 264 kts 91°
2026-04-27 20:55 49.20545 119.77359 5545 ft 263 kts 91°
2026-04-27 20:55 49.20422 119.80141 5196 ft 262 kts 91°
2026-04-27 20:55 49.20257 119.82888 5006 ft 256 kts 98°
2026-04-27 20:55 49.19902 119.85496 4973 ft 247 kts 97°
2026-04-27 20:56 49.19626 119.88069 4965 ft 245 kts 97°
2026-04-27 20:56 49.19333 119.90592 4962 ft 244 kts 97°
2026-04-27 20:56 49.19028 119.93139 4962 ft 243 kts 98°
2026-04-27 20:56 49.18720 119.95673 4961 ft 242 kts 97°
2026-04-27 20:57 49.18415 119.98203 4962 ft 242 kts 98°
2026-04-27 20:57 49.18114 120.00730 4957 ft 242 kts 97°
2026-04-27 20:57 49.17809 120.03255 4967 ft 242 kts 97°
2026-04-27 20:57 49.17500 120.05783 4966 ft 242 kts 98°
2026-04-27 20:58 49.17197 120.08316 4970 ft 243 kts 97°
2026-04-27 20:58 49.16888 120.10856 4968 ft 243 kts 98°
2026-04-27 20:58 49.16581 120.13400 4972 ft 244 kts 98°
2026-04-27 20:58 49.16369 120.15963 4966 ft 242 kts 83°
2026-04-27 20:59 49.16939 120.18312 4965 ft 235 kts 54°
2026-04-27 20:59 49.18134 120.19924 4961 ft 230 kts 24°
2026-04-27 20:59 49.19670 120.20474 4955 ft 227 kts 357°
2026-04-27 20:59 49.21174 120.19851 4967 ft 225 kts 331°
2026-04-27 21:00 49.22313 120.18218 4963 ft 228 kts 305°
2026-04-27 21:00 49.22822 120.15928 4962 ft 230 kts 277°
2026-04-27 21:00 49.22723 120.13541 4956 ft 218 kts 267°
2026-04-27 21:00 49.22573 120.11297 4920 ft 211 kts 267°
2026-04-27 21:01 49.22418 120.09040 4805 ft 212 kts 268°
2026-04-27 21:01 49.22275 120.06896 4675 ft 188 kts 268°
2026-04-27 21:01 49.22148 120.05072 4533 ft 151 kts 268°
2026-04-27 21:01 49.22052 120.03645 4396 ft 128 kts 269°
2026-04-27 21:02 49.21964 120.02344 4272 ft 119 kts 270°
2026-04-27 21:02 49.21882 120.01103 4173 ft 116 kts 270°
2026-04-27 21:02 49.21799 119.99887 4068 ft 114 kts 270°
2026-04-27 21:02 49.21715 119.98697 4001 ft 111 kts 269°
2026-04-27 21:03 49.21637 119.97529 3970 ft 109 kts 270°
2026-04-27 21:03 49.21523 119.96353 3856 ft 116 kts 268°
2026-04-27 21:03 49.21421 119.95119 3700 ft 116 kts 268°
2026-04-27 21:03 49.21330 119.93935 3547 ft 109 kts 271°
2026-04-27 21:04 49.21242 119.92781 3399 ft 108 kts 271°
2026-04-27 21:04 49.21168 119.91632 3243 ft 108 kts 269°
2026-04-27 21:04 49.21098 119.90493 3065 ft 107 kts 268°
2026-04-27 21:04 49.21025 119.89364 2894 ft 106 kts 268°
2026-04-27 21:05 49.20949 119.88244 2722 ft 105 kts 266°
2026-04-27 21:05 49.20878 119.87134 2556 ft 105 kts 264°
2026-04-27 21:05 49.20808 119.86032 2389 ft 102 kts 265°
2026-04-27 21:05 49.20748 119.85014 2211 ft 94 kts 266°
2026-04-27 21:06 49.20694 119.84099 2160 ft 71 kts 263°
2026-04-27 21:06 49.20660 119.83626 2160 ft 35 kts 265°
2026-04-27 21:06 49.20638 119.83274 2160 ft 32 kts 264°
2026-04-27 21:06 49.20615 119.82963 2162 ft 27 kts 263°
2026-04-27 21:07 49.20595 119.82687 2160 ft 25 kts 263°
2026-04-27 21:07 49.20581 119.82468 2161 ft 13 kts 264°
2026-04-27 21:07 49.20573 119.82317 2160 ft 15 kts 274°
2026-04-27 21:07 49.20655 119.82252 2158 ft 15 kts 355°
2026-04-27 21:08 49.20719 119.82174 2161 ft 14 kts 268°
2026-04-27 21:08 49.20709 119.82023 2161 ft 15 kts 264°
2026-04-27 21:08 49.20698 119.81866 2161 ft 13 kts 264°
2026-04-27 21:08 49.20692 119.81738 2161 ft 12 kts 278°
2026-04-27 21:09 49.20762 119.81683 2161 ft 13 kts 354°
2026-04-27 21:09 49.20858 119.81669 2155 ft 8 kts 354°
2026-04-27 21:09 49.20915 119.81673 2161 ft 9 kts
2026-04-27 21:09 49.20981 119.81648 2161 ft 10 kts 309°
2026-04-27 21:10 49.20985 119.81568 2161 ft 7 kts 249°
2026-04-27 21:10 49.20949 119.81539 2161 ft 6 kts 177°
2026-04-27 21:10 49.20938 119.81541 2161 ft 0 kts 175°